Location: Breungeshain
(50.5000°N, 9.2000°E)
Time: 20:45:16
(UTC+00:00)

ISS - Pass Details

Date: 28 May 2017
Orbit: 401 x 408 km, 51.6° (Epoch: 25 June)

Event Time Altitude Azimuth Distance (km) Brightness Sun altitude
Rises 01:14:13 0° 284° (WNW) 2,337 -0.1 -13.8°
Reaches altitude 10° 01:16:36 10° 269° (W) 1,471 -1.3 -13.6°
Enters shadow 01:17:04 13° 263° (W) 1,324 -1.6 -13.6°
